Dewpoint
17 14 13 13 14 12 10 7 6 6 8 5 4 3 1 0 -0 -1 -2 -0 6 5 5 6 9 9 9 10 10 14 17 37 39 45 48 50 52 54 55 56 58 58 58 61 62 62 64 64 65 65 65 65 65 64 65 65 65 65 65 65 65 66 66 67 67 67 66 65 65 66 66 66 66 66 67 67 65 64 64 65 66 67 67 67 67 66
19 16 18 15 13 13 12 11 9 7 6 4 5 4 2 -1 -1 1 1 0 0 3 4 10 6 7 7 8 10 18 19 25 28 39 45 46 47 50 51 53 56 57 60 60 60 62 63 63 64 64 64 65 63 64 65 65 65 65 65 65 65 66 66 66 67 67 66 66 65 65 65 66 66 66 66 66 66 65 65 65 66 67 67 66 66 67
19 15 17 18 19 15 13 11 10 8 7 5 4 5 3 1 0 0 -0 2 2 2 3 6 3 3 7 9 11 17 15 19 26 34 43 45 45 48 51 52 54 55 57 59 60 61 62 62 63 64 64 63 62 65 65 66 66 65 65 65 66 66 66 66 67 67 66 66 66 65 66 66 66 66 67 67 67 67 65 66 66 67 67 66 66 66
21 22 23 22 20 14 13 13 10 11 14 8 4 4 3 4 -0 -2 1 4 -0 6 2 8 1 5 11 14 12 17 17 21 19 25 40 45 45 46 48 51 53 53 53 56 58 60 62 62 62 63 63 64 64 65 65 66 66 66 66 65 66 66 66 66 67 67 67 67 66 66 66 67 66 66 66 67 67 67 66 66 66 66 66 66 66 66
21 21 22 21 21 14 13 12 14 15 11 13 4 5 2 1 1 -2 0 1 9 3 6 6 15 13 19 8 6 14 18 19 19 24 30 38 46 46 47 49 53 53 52 51 56 59 61 62 62 62 63 63 63 64 65 66 66 66 66 66 66 66 66 66 67 67 67 67 67 66 66 66 65 65 66 66 65 66 66 66 66 66 66 66 66 66
23 24 22 24 23 19 13 12 11 14 13 13 13 4 4 3 1 1 2 3 9 5 1 -1 -1 5 15 17 13 12 15 17 21 23 25 33 43 46 45 47 52 54 53 52 55 59 61 62 63 63 63 62 63 64 65 66 66 66 66 66 66 66 66 66 67 67 67 67 66 65 65 64 65 64 64 64 64 65 65 65 66 66 66 66 66 66
24 26 25 25 24 21 15 12 14 12 12 14 11 7 6 5 3 2 1 3 3 -1 -1 4 -1 3 14 6 7 16 11 16 18 22 23 29 39 45 45 46 51 52 53 52 53 59 61 62 63 63 63 62 62 63 64 65 65 66 66 66 66 66 66 66 66 66 67 67 66 66 65 65 64 64 64 65 65 65 65 66 66 66 66 66 66 66
31 27 25 26 24 21 20 19 18 14 16 14 13 7 10 7 6 4 2 3 4 15 14 8 10 -0 -2 8 20 21 15 10 15 19 21 21 28 39 45 46 49 52 52 54 52 56 60 62 63 63 63 63 62 63 63 65 66 66 66 66 66 66 66 66 66 66 67 67 66 66 65 65 65 64 64 64 65 66 66 66 66 66 66 66 66 66
28 26 25 25 25 22 21 19 19 14 14 14 16 12 11 9 8 6 4 7 14 4 1 7 6 -0 8 16 15 20 12 9 11 18 19 19 22 25 33 42 45 49 52 53 53 56 59 61 62 63 63 64 63 63 63 64 65 66 66 66 66 66 66 66 66 66 66 67 66 66 66 65 65 65 64 65 65 65 66 65 65 65 65 66 66 66
27 27 25 26 25 23 23 21 17 15 15 16 15 15 14 17 21 13 9 8 10 4 1 5 6 -1 2 14 7 19 15 15 17 21 22 22 20 21 23 25 37 45 46 51 52 54 59 61 62 63 63 64 64 64 64 64 65 65 66 66 66 66 66 66 66 66 66 66 66 66 66 65 65 65 64 64 64 65 65 65 65 65 65 65 65 65
29 35 33 27 25 25 24 23 20 16 15 16 12 9 9 15 15 23 16 16 10 -1 6 8 8 -3 -3 8 12 14 13 8 11 11 19 19 18 21 28 27 30 43 49 48 48 51 55 61 62 63 63 64 64 64 64 64 65 65 65 65 65 66 66 66 66 65 66 66 66 66 65 65 64 64 64 64 64 64 65 65 65 65 65 65 65 65
24 24 29 28 32 30 22 21 21 19 20 14 12 10 10 9 13 12 12 12 0 3 12 11 9 0 -3 7 9 14 19 17 11 9 12 15 13 15 19 20 24 31 48 52 53 52 53 56 61 64 63 64 64 65 65 65 65 65 65 65 65 66 66 66 66 66 66 66 66 66 65 65 65 64 64 63 63 64 64 64 64 65 65 65 65 65
22 22 24 25 38 24 21 20 21 20 19 17 18 16 9 5 6 -2 5 -3 -2 4 5 10 7 0 1 8 12 18 15 16 16 9 14 14 12 15 16 17 22 32 40 48 53 54 55 56 58 62 64 64 64 64 65 65 66 66 65 65 65 65 66 66 66 66 66 66 66 66 66 65 65 65 64 63 63 64 64 64 64 64 64 64 64 64
21 24 24 23 23 29 23 20 20 20 19 17 16 16 10 0 -3 -6 -1 3 7 5 9 7 9 2 6 6 10 10 11 13 15 17 17 15 17 18 18 18 19 21 26 38 46 53 55 56 57 60 62 64 64 64 65 65 65 66 66 65 65 65 66 66 66 66 66 66 66 66 66 66 65 65 64 64 63 64 64 64 64 64 64 64 64 64
13 17 20 23 20 26 24 22 22 21 20 18 16 13 14 9 1 -6 4 -6 -2 6 8 12 3 6 0 5 13 16 17 19 19 19 22 25 23 24 20 19 19 22 22 27 33 41 50 56 57 58 60 63 64 64 65 65 65 65 66 66 65 65 65 66 66 66 66 66 66 66 66 66 66 65 65 64 64 64 64 64 64 64 64 64 64 64
19 18 21 23 25 25 24 26 22 20 20 21 16 15 15 14 18 5 13 11 12 9 6 7 5 10 7 13 20 18 19 22 29 25 33 21 26 28 23 23 25 26 26 26 27 29 35 47 54 57 59 61 62 63 64 64 65 65 65 66 66 65 65 66 66 66 66 66 66 66 66 66 66 65 65 65 64 64 64 64 64 64 64 64 64 64
23 20 24 27 25 24 25 27 24 20 16 23 15 14 17 17 17 11 11 18 13 10 3 9 10 10 13 11 17 20 18 19 19 19 21 22 23 23 23 28 27 28 28 28 29 31 32 36 46 53 57 59 61 62 63 63 64 64 65 65 65 66 66 66 66 66 66 66 66 66 66 66 66 66 65 65 65 64 64 64 64 64 64 64 64 64
24 25 27 24 24 25 28 27 24 24 22 21 16 16 20 23 23 15 5 6 3 2 4 11 8 10 5 6 17 12 12 15 16 19 20 25 25 23 24 29 27 26 26 27 28 31 34 36 41 46 53 57 59 61 62 62 63 64 65 65 65 66 65 66 66 66 66 66 66 66 66 66 66 66 66 65 65 65 65 64 64 64 64 64 64 64
27 20 22 23 26 28 28 23 22 23 24 20 19 25 17 10 12 18 11 2 1 -2 -0 11 14 13 9 11 13 8 10 13 15 18 19 20 21 23 26 26 27 27 27 27 27 28 29 30 33 40 47 52 56 60 61 62 62 64 65 65 66 65 66 66 66 67 67 67 67 66 66 66 66 66 66 66 66 65 65 65 64 64 64 64 64 64
29 19 22 25 28 29 29 23 16 21 24 22 23 23 27 22 20 14 10 16 14 -0 2 8 11 11 12 13 16 12 16 17 16 17 18 19 22 25 26 27 26 27 26 26 28 29 29 29 29 35 44 50 54 57 60 62 63 63 64 65 66 66 66 66 66 67 67 67 67 67 67 66 66 66 66 66 66 66 65 65 65 64 64 64 64 64
27 24 17 23 27 28 24 24 21 22 22 23 22 22 21 21 23 19 20 14 14 1 1 3 7 13 17 17 19 14 16 17 19 19 20 23 23 24 23 25 27 27 27 27 27 27 28 28 29 30 36 46 55 59 60 62 63 63 64 65 65 65 66 66 66 66 67 67 67 67 66 66 66 66 66 66 66 65 65 65 65 65 65 64 64 64
27 27 23 27 27 25 25 27 23 22 24 24 23 22 20 17 14 12 10 18 16 14 9 4 11 15 19 21 17 17 21 23 22 23 24 25 26 27 26 26 27 27 27 26 27 27 28 28 29 29 34 43 53 58 60 61 63 63 64 65 65 66 66 66 66 66 66 67 67 66 66 66 66 66 66 66 66 65 65 65 65 65 65 64 64 64
34 29 27 25 27 27 28 30 28 25 27 26 24 25 21 21 20 16 6 10 20 19 18 16 11 16 26 24 24 26 26 26 25 25 26 27 28 29 29 29 28 27 27 27 27 28 28 29 29 31 35 39 46 53 59 61 62 63 64 64 65 66 65 66 66 66 67 67 67 66 66 66 66 66 66 66 66 65 65 65 65 65 65 65 64 65
40 26 26 27 29 28 26 28 30 28 29 29 29 29 29 27 27 22 21 21 20 20 17 12 11 18 24 30 27 25 28 29 29 29 29 30 31 31 31 31 31 31 30 30 30 30 29 29 30 30 29 30 37 49 55 59 62 63 63 64 65 65 66 66 66 66 66 67 67 66 66 66 66 66 66 66 66 66 65 65 65 65 65 65 65 65
28 26 29 26 23 25 27 28 28 32 31 29 28 30 31 31 31 30 27 25 18 20 19 15 14 15 23 33 29 29 29 30 31 31 31 31 32 32 33 33 34 34 33 33 31 31 30 30 30 30 30 29 30 41 52 57 60 62 63 63 64 65 66 66 66 66 66 66 66 66 66 66 66 66 66 66 66 66 66 66 66 65 65 65 65 65
33 30 29 24 21 18 18 17 21 26 29 30 32 32 33 32 32 31 26 27 22 26 22 17 18 22 25 28 29 30 31 30 31 31 32 32 33 33 34 34 35 35 35 35 34 34 33 32 32 31 31 30 31 32 45 54 58 61 62 63 64 65 65 66 66 66 66 66 66 66 66 66 66 66 66 66 66 66 66 66 66 65 65 65 65 65
30 33 31 30 28 26 28 29 32 34 32 29 30 32 33 34 35 34 32 28 25 28 27 27 26 27 28 30 30 30 30 30 31 32 32 33 34 35 35 36 36 36 36 36 37 37 36 35 34 33 32 32 31 31 37 50 56 59 61 62 63 64 65 65 65 66 66 66 66 66 66 66 66 66 66 66 66 66 66 66 66 66 65 65 65 65
32 31 32 32 32 32 33 33 34 34 32 32 32 32 34 33 34 33 29 27 33 29 23 29 30 29 29 29 29 30 31 32 32 33 34 35 36 36 36 37 39 38 37 37 37 37 37 37 36 35 35 34 33 32 32 44 53 57 59 60 62 63 64 64 64 65 65 66 66 66 66 66 66 66 66 66 67 66 66 67 66 66 66 66 65 65
31 29 31 32 32 33 34 34 35 35 33 33 33 33 32 34 33 31 31 33 33 28 24 28 30 29 30 31 32 32 33 33 34 35 36 37 37 37 37 37 37 37 37 38 38 38 38 38 38 37 37 36 34 33 32 33 44 53 58 59 60 62 63 64 64 64 64 65 65 65 66 66 66 66 66 66 66 67 67 67 67 67 66 66 66 66
33 31 33 34 33 34 34 35 36 34 33 33 33 33 33 34 33 33 33 33 33 31 32 32 32 31 33 34 34 35 36 36 37 38 38 37 37 37 37 37 37 37 37 37 38 38 38 38 38 38 38 37 35 33 32 31 33 41 50 58 60 61 62 63 64 64 64 64 65 65 66 66 66 66 66 66 66 66 67 67 67 67 67 66 66 66
33 31 34 33 31 31 32 35 36 34 33 31 32 32 33 33 33 33 33 33 34 32 33 33 32 31 34 36 37 38 39 38 38 38 38 39 39 39 39 39 38 38 38 38 38 38 38 39 39 39 38 38 37 35 33 32 31 35 45 54 60 61 62 63 63 63 63 63 64 64 65 66 66 66 66 66 66 66 66 67 67 67 67 67 66 66
36 33 35 32 28 26 29 31 35 35 34 31 29 30 30 30 29 30 30 31 31 30 31 31 29 29 35 38 38 38 37 37 37 37 38 38 39 40 40 40 40 41 41 40 40 39 39 39 39 39 39 39 38 36 33 32 31 33 40 49 58 62 62 62 62 63 63 63 64 64 65 65 66 66 66 66 66 66 66 67 67 67 67 67 67 66
34 34 31 31 27 26 28 30 32 33 32 28 27 29 31 31 32 32 34 34 34 33 30 28 28 34 36 38 36 36 36 36 36 37 37 39 40 40 40 40 41 41 41 41 41 41 40 39 39 39 39 39 39 38 35 32 31 31 36 45 54 61 62 62 62 62 62 62 62 62 61 61 61 62 64 65 66 66 66 66 66 67 67 67 67 67
33 33 31 33 26 26 29 30 32 28 21 22 32 35 34 31 32 31 31 32 34 34 32 33 34 36 36 36 36 35 36 36 37 38 40 39 40 40 41 41 40 39 39 39 40 40 40 40 40 40 40 40 39 38 37 34 31 32 35 41 50 59 62 62 62 62 62 62 62 61 61 61 61 61 61 62 63 63 65 66 66 67 67 67 67 67
31 31 31 33 28 26 29 27 22 20 22 32 37 37 37 36 35 34 34 34 34 35 35 34 34 35 36 36 37 37 38 38 38 38 38 40 41 41 41 41 41 40 40 39 39 40 40 40 40 40 40 40 40 40 38 35 33 34 34 41 47 55 60 62 61 62 62 61 62 61 59 59 59 60 60 61 62 62 63 63 66 66 66 66 66 66
28 29 32 30 28 28 27 25 18 19 31 34 36 37 38 37 36 34 32 33 35 35 35 33 33 35 36 37 38 39 39 39 40 40 40 41 42 42 42 42 42 42 41 40 40 40 40 40 40 40 40 41 41 40 39 35 34 33 33 40 45 52 58 61 61 61 61 60 60 60 59 59 59 59 60 61 61 61 62 62 65 66 66 66 66 66
31 30 28 28 29 24 25 24 23 31 31 30 28 29 32 30 31 31 27 31 34 36 35 32 33 35 36 37 38 39 39 40 39 40 42 42 42 43 44 44 44 44 43 43 42 41 41 41 41 41 42 41 41 40 39 36 34 34 34 38 45 50 55 59 60 61 61 61 60 60 60 60 61 61 61 62 62 62 62 64 65 66 66 65 66 66
30 29 29 22 22 25 24 21 18 21 22 25 28 31 35 35 37 37 35 30 34 38 37 34 33 35 36 37 38 39 40 38 34 37 41 42 43 43 44 45 46 46 46 46 45 45 44 43 42 42 42 41 41 40 39 36 34 34 34 36 42 49 53 57 59 60 61 61 61 60 61 61 62 62 62 63 63 63 64 64 65 66 65 66 65 65
29 30 28 25 23 23 24 19 18 20 24 27 29 31 33 34 36 38 33 27 34 31 31 36 35 36 37 38 39 40 38 33 34 38 42 44 44 45 45 46 46 45 44 43 43 43 45 46 45 44 43 42 41 40 40 37 34 34 35 36 38 46 51 55 57 59 60 60 60 60 61 61 62 62 62 62 63 63 63 64 65 66 66 66 66 66
26 26 26 25 23 23 23 20 18 21 23 28 30 32 33 34 38 34 22 19 28 30 33 36 37 37 38 39 40 39 37 33 35 40 44 45 45 45 46 46 46 44 41 39 39 41 45 48 47 46 44 42 41 41 39 36 35 36 35 36 37 42 48 52 55 57 59 59 60 60 60 60 60 61 61 61 61 62 63 64 65 65 65 65 66 66
24 26 27 26 25 25 25 22 20 19 28 32 31 33 34 36 35 23 20 25 30 32 35 36 37 38 40 40 40 37 40 41 42 44 45 45 45 45 46 47 46 42 39 39 39 41 42 44 46 46 45 43 42 40 38 35 35 36 37 37 38 40 44 48 53 55 57 57 58 59 59 60 60 60 60 61 62 63 63 64 64 64 64 64 65 65
25 30 30 27 26 26 27 22 18 19 28 30 32 34 37 31 24 23 29 32 33 34 35 36 38 39 40 40 41 41 42 43 44 45 44 44 45 45 46 47 46 41 39 41 42 42 41 42 43 43 44 43 41 39 36 35 35 36 37 39 39 39 41 45 50 53 54 54 56 57 59 60 62 62 63 63 63 63 63 63 64 64 64 64 64 64
29 29 27 27 28 28 26 22 20 18 25 32 34 31 36 29 29 33 33 33 35 34 35 37 38 40 41 40 41 42 42 43 43 44 44 44 45 45 46 47 46 42 40 41 41 41 42 41 40 39 39 39 40 38 34 36 36 37 40 40 39 40 41 44 47 48 50 52 53 55 57 59 61 62 63 63 63 63 63 63 63 63 63 63 63 63
30 26 27 28 31 26 26 22 22 27 28 33 33 29 31 35 34 34 34 33 34 34 35 38 39 41 41 41 42 42 43 43 43 44 44 44 45 45 46 47 47 45 41 43 43 44 44 40 39 38 39 38 37 33 35 37 37 40 41 40 40 41 42 44 45 46 47 49 51 53 54 57 59 61 62 62 62 62 62 61 62 62 63 63 63 63
28 27 29 26 30 28 27 27 30 31 32 34 34 35 35 34 34 34 34 34 34 34 35 38 40 41 42 42 42 42 42 43 43 44 44 44 45 45 45 47 47 47 45 44 44 44 44 45 40 37 40 42 39 37 36 38 40 42 42 42 44 43 43 44 45 45 46 47 48 50 52 54 56 58 59 60 61 60 60 60 60 61 61 62 62 63
31 32 30 30 30 30 31 33 33 33 33 32 33 34 33 33 33 34 34 34 34 34 35 37 40 41 42 43 43 42 43 43 43 44 44 45 45 45 46 46 47 48 48 47 45 45 44 43 41 37 37 41 44 42 40 40 42 43 43 45 45 45 44 44 45 45 45 46 47 49 51 53 54 56 57 58 60 60 61 61 60 61 61 62 62 63
30 31 31 30 30 27 23 29 30 32 33 33 32 33 33 33 34 34 34 34 35 35 35 36 41 41 42 43 43 43 43 43 44 44 44 44 44 45 45 46 46 47 48 47 47 46 44 43 40 38 39 40 42 44 43 42 42 42 43 46 46 46 46 45 45 45 46 47 48 49 51 52 53 54 55 56 57 58 59 60 61 61 60 61 62 62
30 33 30 28 29 27 26 30 33 34 34 33 33 31 31 32 33 34 35 35 35 35 36 36 37 39 42 42 43 43 43 44 44 44 44 44 44 44 45 45 46 46 47 48 49 49 49 47 45 43 41 41 40 41 43 43 43 44 45 45 46 46 46 45 45 45 45 46 47 49 50 51 48 53 55 56 58 58 57 58 60 60 59 60 61 62
31 35 27 30 30 29 30 30 31 31 31 31 31 31 32 32 33 34 34 35 35 35 36 36 38 39 41 41 42 43 43 43 44 44 44 44 44 44 44 45 45 46 47 47 48 49 49 49 49 48 48 47 45 42 40 41 42 43 44 45 45 45 45 45 44 45 45 45 46 47 47 49 51 53 55 55 56 58 59 59 58 59 59 60 61 62
32 30 30 30 27 26 26 28 31 28 28 29 31 31 32 33 33 34 34 34 35 35 36 36 37 40 41 42 42 43 43 43 44 44 44 44 44 44 44 45 45 45 46 47 48 48 49 49 50 49 49 49 48 48 47 45 45 44 42 43 44 44 44 44 43 43 43 44 44 45 46 47 48 50 51 54 55 55 54 49 51 56 59 58 52 51
32 31 30 29 29 29 32 32 32 31 31 31 31 32 33 33 34 34 34 34 35 36 36 37 38 39 41 42 42 43 43 44 44 45 44 44 44 44 45 45 45 45 45 46 46 47 48 48 49 49 49 50 51 51 50 50 50 50 50 47 42 42 42 42 42 41 41 42 42 41 44 45 46 48 49 51 53 54 55 56 54 47 47 50 51 48